Вернуться в каталог

STARLINK-34805

АктивенСвязьSSO
NORAD 65071·PAYLOAD·🇺🇸 United States

Запущен Jul 31, 2025 с Vandenberg Space Force Base

Loading…

Ближайшие Пролёты (ближайшие 24 часа)

TLE

СвежийSource: CelesTrak SupGP

Эпоха: Sep 15, 2026, 03:59 UTC

1 65071C 25165R   26258.16645833  .02208400  00000+0  74583-1 0  2588
2 65071  97.2842 329.4226 0001636  89.4035 329.4999 15.29620391    10

Отслеживайте STARLINK-34805 в реальном времени с AllMySat

Download on the App Store